Terug naar catalogus

STARLINK-2684

ActiefCommunicatieVLEO
NORAD 48471·PAYLOAD·🇺🇸 United States

Gelanceerd May 9, 2021 vanaf Cape Canaveral Space Force Station

Loading…

Volgende Passages (komende 24 uur)

TLE

VersSource: CelesTrak SupGP

Epoch: Sep 14, 2026, 13:10 UTC

1 48471C 21040AV  26257.54909722 -.00023300  00000+0 -74959-3 0  2574
2 48471  53.1600  32.1427 0001198  81.3849  83.8002 15.31699988    13

Volg STARLINK-2684 in realtime met AllMySat

Download on the App Store